Location: Albert Place
(40.7505°N, 111.9230°W)
Time: 14:20:55
(UTC+00:00)

Cosmos 1092 Rocket - Pass Details

Date: 13 December 2025
Orbit: 953 x 995 km, 83.0° (Epoch: 17 January)

Event Time Altitude Azimuth Distance (km) Brightness Sun altitude
Rises 12:17:15 0° 181° (S) 3,680 7.1 -26.8°
Reaches altitude 10° 12:19:46 10° 180° (S) 2,731 6.4 -26.3°
Maximum altitude 12:26:01 78° 95° (E) 1,001 4.0 -25.2°
Drops below altitude 10° 12:32:15 10° 10° (N) 2,720 6.3 -24.0°
Sets 12:34:45 0° 9° (N) 3,665 7.0 -23.5°
